Wind_Speed
15 16 16 16 16 16 16 16 16 16 15 14 12 12 11 9 6 5 5 3 1 1 2 4 5 6 6 6 7 7 8 9 10 10 11 11 11 11 11 12 12 12 12
13 14 14 15 15 15 15 15 15 15 14 14 13 12 11 10 8 7 5 4 2 1 2 3 4 5 6 6 8 8 8 9 10 11 12 12 12 12 12 13 13 14 14
11 12 13 14 14 14 14 14 15 16 15 14 14 12 11 10 8 8 6 5 3 2 1 2 3 5 6 7 8 9 10 10 10 11 11 12 13 13 13 13 14 15 15
10 10 11 12 13 13 14 14 14 15 15 14 14 13 11 9 8 7 7 6 4 3 2 3 3 4 5 7 8 9 10 11 11 12 12 12 13 14 14 14 14 15 16
9 9 10 11 12 12 13 13 14 14 14 14 14 13 11 10 9 8 7 7 6 4 4 4 4 5 6 7 8 9 10 11 12 13 13 13 14 14 15 15 15 15 15
8 8 9 10 11 11 12 12 13 14 14 14 14 13 12 11 10 9 8 7 6 5 5 5 5 6 6 7 8 9 10 11 11 12 13 14 15 15 15 15 16 16 16
8 9 9 9 10 10 11 11 12 13 13 13 13 13 13 11 10 9 9 8 7 7 6 6 7 7 8 8 8 9 10 11 12 13 13 14 15 16 17 17 17 17 17
9 9 9 8 9 9 10 10 11 12 13 13 13 13 13 11 10 9 9 9 9 9 8 8 8 8 8 9 9 9 10 10 11 12 13 13 14 15 16 17 17 18 19
10 10 9 8 8 9 9 10 10 11 12 12 12 12 13 12 10 10 10 10 10 10 10 10 10 10 10 10 10 9 10 10 11 12 13 13 14 14 15 16 17 18 20
12 10 9 9 8 8 8 9 9 10 11 11 12 12 12 12 11 10 10 10 10 10 11 11 12 12 12 11 11 11 11 11 12 14 14 15 15 15 16 17 17 18 19
11 10 11 10 8 8 8 9 10 10 10 11 12 12 12 12 12 12 11 11 11 12 12 12 13 13 13 12 12 12 13 14 14 14 15 17 17 17 18 19 19 19 19
14 13 13 12 11 9 9 9 9 10 10 11 12 12 12 12 12 13 13 13 14 14 14 14 14 14 14 14 13 13 14 15 16 16 16 17 18 18 19 20 20 20 20
16 15 15 14 13 12 10 10 11 11 11 12 13 13 13 13 14 14 14 14 15 15 15 15 15 15 15 15 15 15 15 16 17 17 18 18 18 19 20 21 21 22 22
18 16 16 17 18 15 12 11 12 12 13 14 14 15 15 15 16 16 16 15 15 16 16 16 17 17 17 17 17 17 17 17 18 18 18 19 19 20 20 21 22 22 22
20 19 19 19 19 18 15 14 13 14 14 15 16 17 17 18 18 18 17 16 16 17 16 17 18 18 19 19 20 20 19 19 20 20 20 20 20 20 21 21 21 22 22
23 24 24 22 22 20 19 17 16 17 17 17 18 18 19 20 20 20 20 18 18 18 18 18 20 20 21 21 21 21 21 20 21 21 22 22 21 21 21 21 22 22 22
27 27 26 25 24 24 24 21 19 20 20 20 20 20 22 23 23 21 21 22 21 21 21 21 22 22 23 23 22 22 22 22 22 23 23 23 23 23 23 23 23 23 24
30 30 29 29 28 26 25 24 24 24 23 23 24 23 24 25 23 24 24 24 25 24 24 24 25 25 25 25 25 25 25 25 25 24 24 25 25 24 24 24 24 24 24
33 32 32 31 30 28 27 27 26 26 26 26 26 26 26 27 27 27 27 27 26 26 26 27 28 28 28 28 27 27 27 27 27 26 26 25 26 26 26 26 26 25 26
37 36 35 34 32 30 30 29 28 28 28 28 29 28 28 29 29 29 29 29 28 28 28 29 31 30 31 31 29 28 28 28 28 27 27 27 27 27 27 27 27 27 27
38 38 37 36 35 34 34 32 31 30 30 30 31 31 30 30 31 31 31 31 30 30 31 32 33 32 32 32 31 30 30 29 28 28 27 27 27 27 27 27 28 28 28
40 40 39 38 37 36 35 34 32 32 32 33 33 33 32 32 33 32 33 32 32 32 33 34 34 34 34 33 33 32 31 31 30 29 28 27 27 27 27 28 28 29 29
42 41 41 39 38 38 37 36 34 32 33 34 34 33 33 33 34 34 34 34 34 35 35 36 35 35 34 34 33 32 32 32 31 29 28 28 28 28 28 29 29 30 30
43 43 42 41 40 40 38 37 37 34 34 35 36 35 35 35 35 36 35 35 36 36 37 36 36 36 36 35 34 33 33 33 32 31 31 30 29 29 29 29 30 31 31
44 44 43 43 42 41 40 40 38 36 36 36 37 36 36 36 37 37 37 37 37 38 37 37 37 37 36 36 35 35 34 34 33 33 33 32 31 31 31 31 32 32 33
46 45 44 43 42 41 40 39 39 39 38 38 38 38 38 38 38 39 39 39 39 39 38 38 38 37 37 37 36 36 35 35 35 34 34 34 34 34 34 33 34 34 33
Wind_Direction
29 31 32 34 35 36 37 37 36 36 37 37 37 38 40 43 50 44 35 24 341 255 248 250 247 243 243 247 253 254 250 249 247 248 251 253 252 247 247 251 254 255 257
24 26 29 32 33 34 35 35 34 34 34 34 34 35 37 40 45 46 36 27 12 312 262 257 253 250 253 256 257 256 255 254 254 251 253 255 256 253 252 253 255 256 258
17 22 28 31 30 30 32 32 32 32 33 30 31 31 31 33 33 29 25 24 18 0 321 281 269 264 262 262 263 259 256 259 256 254 258 260 258 260 257 259 261 259 259
11 15 25 29 28 27 28 29 30 30 32 30 29 28 28 27 26 24 24 24 21 11 355 325 306 290 275 268 265 260 258 259 258 257 259 263 262 261 262 262 264 263 262
1 5 17 24 26 25 25 26 26 26 28 28 27 26 26 24 22 20 21 21 21 22 14 352 328 312 298 283 274 267 263 263 263 263 263 263 264 263 262 264 265 265 265
349 356 3 11 19 21 21 22 22 23 24 26 25 26 24 23 21 17 14 9 8 6 2 357 342 329 315 302 289 280 272 269 270 269 266 264 264 264 263 263 264 266 267
333 342 350 356 2 8 11 15 18 21 21 22 22 22 21 21 21 19 16 11 4 357 351 351 341 330 321 312 301 290 282 276 273 271 272 269 267 267 266 263 264 266 267
321 331 335 340 347 351 357 5 12 16 17 19 20 20 20 21 21 18 15 11 6 1 351 343 338 331 325 315 308 297 289 281 275 274 277 276 273 272 270 266 265 266 267
307 319 326 331 335 339 345 352 1 7 10 12 13 14 16 15 12 12 10 7 2 355 350 344 338 332 325 319 311 305 297 289 282 278 278 277 275 274 274 271 269 268 268
298 310 315 321 324 328 336 339 352 357 0 2 4 6 8 7 4 359 358 358 356 352 346 342 336 334 325 317 311 306 306 298 289 281 276 276 275 277 277 275 271 270 270
291 304 307 304 314 321 326 335 340 344 348 352 354 356 357 356 355 355 350 347 344 341 340 337 334 332 327 320 314 310 305 303 301 294 285 279 277 280 281 280 275 272 272
286 295 299 299 298 305 315 321 325 330 335 340 342 343 346 346 344 343 342 340 339 337 335 333 331 329 327 322 316 312 308 305 303 300 296 292 284 282 282 283 280 275 273
284 290 291 292 292 293 299 308 312 318 324 329 332 332 333 333 333 332 333 335 336 336 334 334 333 331 329 325 321 316 310 308 306 303 299 296 294 290 285 283 281 279 276
280 284 288 289 292 288 292 297 302 308 314 319 322 323 323 323 322 322 324 325 328 330 329 328 329 327 327 326 322 319 314 309 306 304 301 299 295 292 288 286 284 281 281
273 279 281 283 288 290 288 297 299 302 306 308 310 312 313 315 317 315 316 316 320 324 326 326 326 325 324 322 320 316 312 308 305 303 301 299 297 293 289 288 287 286 284
272 277 281 286 287 288 292 294 293 296 298 299 301 303 305 306 307 307 310 313 316 317 319 322 325 323 321 319 317 314 310 308 306 303 301 298 299 297 294 291 290 289 287
272 276 281 284 287 287 290 289 292 297 296 296 295 296 299 302 303 304 305 310 314 319 318 318 319 321 320 316 314 313 310 307 305 303 301 298 297 297 296 294 292 289 287
268 273 277 280 282 283 286 287 287 290 291 289 288 290 293 296 299 300 302 304 307 312 313 314 315 315 315 314 312 310 309 306 303 302 301 299 297 295 295 295 294 291 289
266 270 274 277 277 280 282 281 283 285 286 287 288 289 290 291 295 299 302 302 301 304 307 308 310 311 312 310 309 308 306 306 304 303 302 300 297 295 295 295 295 294 292
266 268 271 274 276 278 279 279 281 282 283 282 283 284 286 288 292 295 295 297 298 301 303 305 308 308 308 308 305 306 305 305 304 303 301 299 298 296 293 292 293 294 293
265 267 269 271 273 275 277 278 280 280 280 280 281 281 283 285 287 291 293 295 296 297 300 302 305 306 307 307 306 306 306 306 304 303 302 301 298 296 293 291 291 291 292
263 265 266 269 271 273 275 275 275 277 278 278 280 280 282 285 287 290 292 293 294 294 297 300 302 304 305 305 304 304 305 306 304 303 303 302 301 296 294 292 290 290 290
258 261 264 266 269 271 272 272 272 273 275 277 278 278 281 284 286 288 288 290 292 294 296 297 299 300 301 303 303 302 303 304 304 302 301 301 300 298 296 294 292 291 291
256 258 261 265 268 270 270 271 271 272 274 277 280 280 280 281 283 286 286 288 291 292 294 295 296 298 298 299 300 300 301 302 301 300 299 299 298 297 296 296 295 293 292
256 257 260 263 266 269 270 270 271 273 274 275 277 278 279 281 283 287 287 288 289 290 292 293 294 295 296 296 296 297 297 298 299 298 297 297 297 297 297 296 296 295 294
255 258 260 263 265 267 268 269 271 273 273 275 277 278 280 282 283 285 287 288 288 289 289 290 292 293 293 293 293 294 294 295 295 295 296 296 295 295 295 295 295 294 293
Height
5931 5929 5927 5924 5922 5920 5918 5915 5913 5910 5908 5906 5904 5902 5900 5899 5898 5897 5897 5896 5896 5896 5896 5896 5896 5896 5897 5897 5897 5897 5897 5897 5898 5898 5898 5898 5898 5898 5898 5897 5898 5898 5897
5933 5931 5929 5926 5924 5921 5919 5917 5914 5912 5909 5907 5905 5903 5901 5899 5898 5897 5896 5896 5895 5895 5895 5895 5895 5895 5895 5895 5895 5895 5895 5895 5895 5896 5895 5896 5896 5895 5895 5895 5895 5895 5894
5934 5932 5930 5927 5925 5923 5920 5918 5915 5913 5910 5908 5906 5904 5902 5900 5899 5897 5896 5895 5894 5894 5894 5894 5893 5893 5893 5893 5893 5893 5893 5893 5893 5893 5893 5893 5893 5893 5893 5892 5892 5892 5891
5935 5933 5930 5928 5926 5923 5921 5919 5916 5914 5911 5909 5906 5904 5902 5901 5899 5898 5896 5895 5894 5893 5893 5893 5892 5892 5892 5891 5891 5891 5891 5891 5890 5890 5890 5890 5890 5890 5889 5889 5889 5888 5888
5935 5933 5931 5929 5926 5924 5922 5920 5917 5915 5912 5910 5907 5905 5903 5901 5899 5898 5897 5895 5894 5893 5893 5892 5891 5891 5890 5889 5889 5889 5888 5888 5888 5887 5887 5887 5887 5886 5886 5886 5885 5885 5884
5935 5933 5931 5929 5927 5925 5923 5921 5918 5916 5913 5911 5908 5906 5904 5902 5900 5898 5897 5896 5895 5893 5892 5891 5890 5889 5888 5887 5886 5886 5885 5885 5885 5884 5884 5883 5883 5883 5882 5882 5881 5881 5880
5934 5933 5931 5929 5927 5925 5923 5921 5919 5916 5914 5911 5909 5906 5904 5902 5900 5899 5897 5895 5894 5893 5891 5890 5889 5888 5886 5885 5884 5883 5882 5882 5881 5881 5880 5880 5879 5879 5878 5878 5877 5877 5876
5932 5931 5930 5928 5926 5925 5923 5921 5919 5916 5914 5911 5909 5907 5904 5902 5900 5899 5897 5895 5894 5892 5890 5889 5888 5886 5884 5883 5882 5880 5879 5878 5878 5877 5876 5876 5875 5874 5873 5873 5872 5872 5871
5929 5928 5928 5926 5925 5924 5922 5920 5918 5916 5914 5912 5909 5907 5904 5902 5900 5899 5897 5895 5893 5891 5890 5888 5886 5885 5883 5881 5879 5878 5877 5875 5874 5873 5872 5872 5871 5870 5869 5868 5867 5867 5866
5926 5926 5925 5925 5923 5922 5921 5919 5917 5915 5913 5911 5909 5907 5904 5902 5900 5898 5896 5894 5892 5890 5889 5887 5885 5883 5881 5879 5877 5876 5874 5872 5871 5869 5868 5867 5866 5865 5864 5863 5862 5861 5860
5923 5922 5923 5923 5922 5920 5919 5917 5916 5914 5913 5911 5908 5906 5904 5902 5899 5897 5895 5893 5891 5889 5887 5885 5883 5881 5878 5876 5874 5873 5871 5869 5867 5865 5864 5863 5861 5860 5859 5858 5857 5855 5855
5920 5920 5920 5919 5918 5917 5916 5915 5914 5912 5911 5909 5907 5905 5903 5900 5898 5896 5894 5892 5889 5887 5885 5882 5880 5878 5875 5873 5871 5869 5868 5866 5864 5861 5860 5858 5856 5855 5854 5853 5851 5850 5849
5916 5916 5916 5916 5915 5914 5913 5912 5911 5910 5909 5907 5905 5903 5901 5899 5896 5894 5892 5890 5887 5885 5882 5880 5877 5875 5873 5870 5868 5866 5864 5862 5859 5857 5855 5853 5851 5850 5849 5847 5845 5844 5843
5912 5911 5911 5912 5911 5910 5910 5909 5908 5906 5905 5904 5902 5900 5898 5896 5893 5891 5889 5886 5884 5882 5880 5877 5875 5872 5870 5867 5864 5862 5860 5857 5855 5853 5850 5848 5846 5844 5843 5841 5839 5838 5836
5906 5907 5907 5906 5906 5906 5905 5904 5904 5902 5901 5900 5899 5897 5895 5892 5890 5887 5884 5882 5880 5878 5876 5874 5871 5869 5866 5863 5860 5858 5855 5853 5850 5848 5846 5843 5841 5839 5837 5835 5834 5832 5830
5901 5901 5900 5900 5901 5900 5899 5899 5898 5897 5896 5896 5894 5893 5891 5889 5886 5883 5880 5878 5876 5874 5872 5870 5867 5864 5862 5859 5856 5853 5850 5847 5845 5843 5840 5838 5835 5833 5831 5830 5828 5826 5824
5895 5895 5895 5896 5896 5895 5894 5893 5893 5892 5891 5890 5889 5888 5886 5883 5880 5877 5875 5874 5873 5870 5868 5865 5863 5860 5857 5854 5850 5847 5845 5842 5839 5837 5834 5832 5829 5827 5825 5823 5821 5819 5817
5890 5890 5890 5890 5889 5889 5888 5887 5886 5887 5886 5885 5883 5881 5880 5878 5874 5872 5871 5870 5868 5865 5863 5860 5858 5855 5851 5848 5845 5842 5839 5836 5833 5830 5828 5825 5823 5821 5818 5816 5814 5812 5810
5883 5883 5883 5882 5882 5882 5881 5881 5880 5879 5879 5878 5876 5874 5873 5871 5869 5867 5866 5864 5861 5859 5857 5855 5851 5848 5845 5842 5839 5835 5832 5829 5827 5824 5821 5818 5816 5814 5811 5809 5807 5805 5803
5874 5875 5875 5875 5875 5874 5873 5872 5872 5872 5872 5871 5869 5868 5867 5864 5862 5860 5859 5857 5855 5853 5850 5848 5845 5841 5838 5835 5831 5828 5826 5823 5820 5817 5814 5811 5808 5806 5803 5801 5799 5797 5795
5866 5866 5867 5867 5867 5866 5865 5864 5864 5864 5864 5862 5861 5860 5858 5856 5854 5852 5851 5849 5847 5845 5843 5840 5837 5834 5831 5828 5824 5821 5818 5815 5812 5810 5806 5803 5800 5798 5796 5793 5791 5789 5787
5856 5856 5857 5857 5857 5857 5857 5856 5855 5855 5855 5853 5852 5850 5849 5848 5846 5844 5843 5841 5839 5837 5834 5832 5829 5826 5823 5820 5816 5813 5811 5808 5805 5802 5799 5796 5793 5790 5788 5786 5783 5781 5779
5844 5846 5847 5847 5847 5848 5848 5847 5846 5845 5845 5844 5842 5840 5839 5838 5837 5835 5833 5832 5830 5828 5825 5823 5820 5817 5814 5811 5808 5805 5802 5799 5796 5793 5791 5788 5785 5782 5780 5777 5775 5772 5770
5833 5834 5835 5835 5836 5837 5837 5836 5836 5835 5835 5834 5832 5830 5830 5828 5826 5824 5823 5822 5820 5818 5816 5813 5811 5808 5805 5802 5799 5796 5793 5790 5787 5785 5782 5779 5776 5774 5771 5769 5766 5763 5761
5822 5823 5824 5825 5826 5825 5825 5826 5826 5825 5825 5824 5823 5821 5820 5819 5817 5815 5814 5812 5810 5808 5806 5804 5801 5799 5796 5793 5791 5787 5784 5781 5779 5776 5773 5770 5768 5765 5762 5760 5757 5754 5751
5810 5811 5812 5814 5815 5815 5815 5816 5815 5814 5813 5813 5812 5811 5810 5809 5807 5805 5804 5801 5799 5797 5795 5793 5791 5789 5786 5783 5781 5778 5775 5772 5769 5766 5763 5761 5758 5755 5753 5750 5747 5744 5742